Location: ??
(35.5052°N, 139.7262°E)
Time: 09:14:25
(UTC+00:00)

OAO 1 - Pass Details

Date: 25 October 2021
Orbit: 773 x 784 km, 35.0° (Epoch: 28 November)

Event Time Altitude Azimuth Distance (km) Brightness Sun altitude
Rises 11:04:22 0° 277° (W) 3,253 8.6 -39.2°
Reaches altitude 10° 11:06:50 10° 275° (W) 2,326 7.7 -39.7°
Enters shadow 11:08:25 20° 273° (W) 1,757 6.9 -40.0°
